Dubuque, IA

6:18 AM CDT on October 14, 2019 (GMT -0500)
Dubuque Regional

Weather History for KDBQ - August, 2019

Change the Weather History Date:

Saturday, August 24, 2019

  Actual Average Record
Temperature  
Mean Temperature 62 °F 69 °F  
Max Temperature 73 °F 79 °F 99 °F (1947)
Min Temperature 52 °F 60 °F 43 °F (1875)
Degree Days  
Heating Degree Days 2 1  
Month to date heating degree days 2 9  
Since 1 June heating degree days 31 57  
Since 1 July heating degree days 2 17  
Cooling Degree Days 0 5  
Month to date cooling degree days 116 145  
Year to date cooling degree days 569 545  
Since 1 June cooling degree days 543 508  
Growing Degree Days 12 (Base 50)    
Moisture  
Dew Point 55 °F    
Average Humidity 76    
Maximum Humidity 100    
Minimum Humidity 57    
Precipitation  
Precipitation 0.00 in 0.12 in 2.46 in (1963)
Month to date precipitation 4.88 3.45  
Year to date precipitation 30.99 25.03  
Snow  
Snow 0.00 in 0.00 in - ()
Month to date snowfall 0.0 0.0  
Since 1 June snowfall 0.0 0.0  
Since 1 July snowfall 0.0 0.0  
Snow Depth 0.00 in    
Sea Level Pressure  
Sea Level Pressure 30.23 in    
Wind  
Wind Speed 7 mph ()    
Max Wind Speed 16 mph    
Max Gust Speed 22 mph    
Visibility 10.0 miles    
Events      
T = Trace of Precipitation, MM = Missing Value Source: Averaged Metar Reports

Daily Weather History Graph

Daily Weather History Graph

Search for Another Location

Airport or City:

Astronomy

Aug. 24, 2019 Rise Set
Actual Time 6:19 AM CDT 7:50 PM CDT
Civil Twilight 5:49 AM CDT 8:19 PM CDT
Nautical Twilight 5:14 AM CDT 8:55 PM CDT
Astronomical Twilight 4:36 AM CDT 9:33 PM CDT
Moon 12:10 AM CDT (8/24) 3:09 PM CDT (8/24)
Length of Visible Light 14h 30m
Length of Day
13h 31m
Last Quarter, 39% of the Moon is Illuminated
Aug 24
Last Quarter
Aug 30
New
Sep 5
First Quarter
Sep 13
Full
Sep 21
Last Quarter

Hourly Weather History & Observations

Time (CDT) Temp. Dew Point Humidity Pressure Visibility Wind Dir Wind Speed Gust Speed Precip Events Conditions
12:53 AM 59.0 °F 55.0 °F 87% 30.25 in 10.0 mi East 6.9 mph - N/A   Clear
1:53 AM 57.0 °F 53.1 °F 87% 30.25 in 10.0 mi East 5.8 mph - N/A   Clear
2:53 AM 57.0 °F 53.1 °F 87% 30.26 in 10.0 mi East 6.9 mph - N/A   Clear
3:53 AM 55.9 °F 53.1 °F 90% 30.27 in 10.0 mi ENE 4.6 mph - N/A   Clear
4:53 AM 54.0 °F 52.0 °F 93% 30.27 in 10.0 mi NNE 6.9 mph - N/A   Clear
5:53 AM 53.1 °F 52.0 °F 96% 30.28 in 10.0 mi NNE 4.6 mph - N/A   Clear
6:53 AM 54.0 °F 53.1 °F 97% 30.28 in 10.0 mi NNE 8.1 mph - N/A   Clear
7:53 AM 55.9 °F 54.0 °F 93% 30.29 in 10.0 mi NE 6.9 mph - N/A   Clear
8:53 AM 62.1 °F 57.0 °F 84% 30.27 in 10.0 mi NE 6.9 mph - N/A   Clear
9:53 AM 66.0 °F 59.0 °F 78% 30.27 in 10.0 mi ESE 9.2 mph - N/A   Clear
10:53 AM 68.0 °F 57.0 °F 68% 30.27 in 10.0 mi SE 9.2 mph - N/A   Clear
11:53 AM 69.1 °F 55.9 °F 63% 30.26 in 10.0 mi SE 10.4 mph - N/A   Clear
12:53 PM 70.0 °F 55.0 °F 59% 30.24 in 10.0 mi SE 9.2 mph 20.7 mph N/A   Clear
1:53 PM 72.0 °F 55.9 °F 57% 30.22 in 10.0 mi SE 13.8 mph - N/A   Partly Cloudy
2:53 PM 71.1 °F 55.9 °F 59% 30.22 in 10.0 mi ESE 12.7 mph - N/A   Mostly Cloudy
3:53 PM 71.1 °F 55.9 °F 59% 30.20 in 10.0 mi East 10.4 mph - N/A   Mostly Cloudy
4:53 PM 72.0 °F 55.9 °F 57% 30.19 in 10.0 mi ESE 12.7 mph 18.4 mph N/A   Overcast
5:53 PM 71.1 °F 55.0 °F 57% 30.19 in 10.0 mi ESE 8.1 mph - N/A   Mostly Cloudy
6:53 PM 69.1 °F 57.0 °F 65% 30.17 in 10.0 mi ESE 5.8 mph - N/A   Clear
7:53 PM 64.9 °F 57.0 °F 75% 30.19 in 10.0 mi ESE 4.6 mph - N/A   Clear
8:53 PM 62.1 °F 55.9 °F 80% 30.19 in 10.0 mi East 6.9 mph - N/A   Scattered Clouds
9:53 PM 62.1 °F 55.0 °F 78% 30.19 in 10.0 mi East 6.9 mph - N/A   Mostly Cloudy
10:53 PM 61.0 °F 54.0 °F 78% 30.18 in 10.0 mi ESE 8.1 mph - N/A   Clear
11:53 PM 59.0 °F 53.1 °F 81% 30.18 in 10.0 mi ESE 8.1 mph - N/A   Clear